This demonstration page uses our WeatherBlox Daily Observations layout. Learn more.

Left ArrowRight Arrow

39.08367, -84.50855

Hourly Observations for March 28, 2018

Temp ( °F °C ) Dew Point ( °F °C ) Humidity (%) Winds ( mph kmh ) Pressure ( in mb ) Visibility ( mi km ) Precip ( " mm )
12:36 am 00:36 Cloudy with Light Rain 53 11.7 53 11.7 100 100 N N/A 30.03 1017 1 2 0.02 0.51
12:53 am 00:53 Cloudy with Light Rain 53 11.7 53 11.7 100 100 N N/A 30.03 1017 2 2 0.03 0.76
1:01 am 01:01 Cloudy with Light Rain 53 11.7 53 11.7 100 100 N N/A 30.03 1017 1 2 0.01 0.25
1:23 am 01:23 Cloudy with Light Rain 52 11.1 52 11.1 100 100 N N/A 30.03 1017 1 1 0.02 0.51
1:43 am 01:43 Cloudy with Light Rain 53 11.7 53 11.7 100 100 N N/A 30.03 1017 1 2 0.03 0.76
1:53 am 01:53 Cloudy with Light Rain 53 11.7 53 11.7 100 100 N N/A 30.02 1017 2 3 0.03 0.76
2:03 am 02:03 Cloudy with Light Rain 53 11.7 53 11.7 100 100 W 3 6 30.03 1017 2 3 0.01 0.25
2:12 am 02:12 Cloudy with Light Rain 53 11.7 53 11.7 100 100 N N/A 30.03 1017 2 2 0.01 0.25
2:29 am 02:29 Cloudy with Light Rain 52 11.1 52 11.1 100 100 N N/A 30.00 1016 1 1 0.03 0.76
2:53 am 02:53 Mostly Cloudy with Light Rain 52 11.1 52 11.1 100 100 N N/A 30.00 1016 1 1 0.05 1.27
3:01 am 03:01 Cloudy with Light Rain 53 11.7 53 11.7 100 100 N N/A 30.00 1016 1 2 0.01 0.25
3:32 am 03:32 Cloudy with Light Rain 52 11.1 52 11.1 100 100 N N/A 30.00 1016 1 2 0.02 0.51
3:42 am 03:42 Cloudy with Light Rain 52 11.1 52 11.1 100 100 N N/A 30.00 1016 1 1 0.03 0.76
3:53 am 03:53 Cloudy with Light Rain 52 11.1 52 11.1 100 100 N N/A 29.98 1015 1 1 0.03 0.76
4:00 am 04:00 Cloudy with Light Rain 52 11.1 52 11.1 100 100 N N/A 30.00 1016 1 2 0.01 0.25
4:33 am 04:33 Cloudy with Mist and Fog 52 11.1 52 11.1 100 100 N N/A 29.97 1015 2 2 0.02 0.51
4:41 am 04:41 Cloudy with Mist and Fog 52 11.1 52 11.1 100 100 N N/A 29.97 1015 1 1 0.02 0.51
4:53 am 04:53 Cloudy with Mist and Fog 52 11.1 52 11.1 100 100 N N/A 29.98 1015 1 1 0.02 0.51
5:02 am 05:02 Cloudy with Mist and Fog 52 11.1 52 11.1 100 100 N N/A 29.97 1015 1 2 N/A
5:33 am 05:33 Mostly Cloudy with Rain 52 11.1 52 11.1 100 100 N N/A 29.97 1015 1 1 0.02 0.51
5:43 am 05:43 Mostly Cloudy with Light Rain 52 11.1 52 11.1 100 100 N N/A 29.97 1015 1 2 0.03 0.76
5:53 am 05:53 Cloudy with Light Rain 52 11.1 52 11.1 100 100 N N/A 29.96 1015 2 3 0.04 1.02
6:03 am 06:03 Cloudy with Light Rain 52 11.1 52 11.1 100 100 N N/A 29.97 1015 1 2 N/A
6:18 am 06:18 Cloudy with Light Rain 52 11.1 52 11.1 100 100 N N/A 29.97 1015 1 1 0.01 0.25
6:29 am 06:29 Cloudy with Light Rain 51 10.6 51 10.6 100 100 N N/A 29.97 1015 1 2 0.01 0.25
6:53 am 06:53 Cloudy with Rain 51 10.6 51 10.6 100 100 N N/A 29.98 1015 2 2 0.04 1.02
7:17 am 07:17 Cloudy with Rain 52 11.1 52 11.1 100 100 N N/A 30.00 1016 3 4 0.07 1.78
7:25 am 07:25 Cloudy with Rain 52 11.1 52 11.1 100 100 N N/A 29.97 1015 3 5 0.09 2.29
7:33 am 07:33 Cloudy with Light Rain 52 11.1 52 11.1 100 100 ENE 3 6 29.97 1015 2 3 0.10 2.54
7:53 am 07:53 Cloudy with Light Rain 52 11.1 52 11.1 100 100 N N/A 29.98 1015 2 3 0.12 3.05
8:12 am 08:12 Cloudy with Light Rain 52 11.1 52 11.1 100 100 N N/A 29.97 1015 2 3 0.01 0.25
8:19 am 08:19 Cloudy with Light Rain 52 11.1 52 11.1 100 100 N N/A 29.97 1015 2 3 0.01 0.25
8:45 am 08:45 Cloudy with Light Rain 53 11.7 53 11.7 100 100 N N/A 29.97 1015 4 6 0.01 0.25
8:53 am 08:53 Cloudy with Light Rain 53 11.7 53 11.7 100 100 NE 3 6 29.96 1015 4 6 0.01 0.25
9:53 am 09:53 Cloudy with Light Rain 54 12.2 54 12.2 100 100 N N/A 29.98 1015 5 8 0.01 0.25
10:53 am 10:53 Cloudy with Light Rain 55 12.8 55 12.8 100 100 N N/A 29.97 1015 5 8 0.02 0.51
11:41 am 11:41 Cloudy with Light Rain 55 12.8 55 12.8 100 100 N N/A 29.97 1015 8 13 N/A
11:53 am 11:53 Cloudy with Light Rain 56 13.3 56 13.3 100 100 N N/A 29.98 1015 6 10 0.01 0.25
12:15 pm 12:15 Cloudy with Rain 56 13.3 56 13.3 100 100 N N/A 29.97 1015 2 3 0.03 0.76
12:53 pm 12:53 Cloudy with Light Rain 56 13.3 56 13.3 100 100 N N/A 29.96 1014 2 3 0.12 3.05
1:00 pm 13:00 Cloudy with Light Rain 57 13.9 57 13.9 100 100 N N/A 29.97 1015 2 3 N/A
1:11 pm 13:11 Cloudy with Light Rain 57 13.9 57 13.9 100 100 N N/A 29.91 1013 2 3 N/A
1:53 pm 13:53 Cloudy with Light Rain 57 13.9 57 13.9 100 100 N N/A 29.94 1014 2 3 0.01 0.25
2:35 pm 14:35 Cloudy with Light Rain 58 14.4 58 14.4 100 100 S 3 6 29.91 1013 2 3 N/A
2:53 pm 14:53 Cloudy with Light Rain 58 14.4 58 14.4 100 100 S 5 7 29.91 1013 2 3 N/A
3:53 pm 15:53 Cloudy with Light Rain 58 14.4 58 14.4 100 100 N N/A 29.91 1013 2 3 0.01 0.25
4:53 pm 16:53 Cloudy with Light Rain 59 15 59 15 100 100 N 3 6 29.91 1013 2 3 0.02 0.51
5:30 pm 17:30 Cloudy with Light Rain 59 15 59 15 100 100 N N/A 29.91 1013 2 3 0.02 0.51
5:43 pm 17:43 Cloudy with Light Rain 58 14.4 58 14.4 100 100 N N/A 29.91 1013 2 3 0.03 0.76
5:53 pm 17:53 Cloudy with Light Rain 58 14.4 58 14.4 100 100 N N/A 29.91 1013 2 3 0.03 0.76
6:53 pm 18:53 Cloudy with Mist and Fog 58 14.4 58 14.4 100 100 N N/A 29.91 1013 2 3 0.03 0.76
7:00 pm 19:00 Cloudy with Mist and Fog 58 14.4 58 14.4 100 100 N N/A 29.91 1013 2 3 N/A
7:38 pm 19:38 Cloudy with Mist and Fog 58 14.4 58 14.4 100 100 N N/A 29.91 1013 2 3 N/A
7:53 pm 19:53 Cloudy with Mist and Fog 57 13.9 57 13.9 100 100 N N/A 29.91 1013 5 8 N/A
8:22 pm 20:22 Cloudy with Mist and Fog 57 13.9 57 13.9 100 100 N 5 7 29.91 1013 3 5 N/A
8:53 pm 20:53 Cloudy with Mist and Fog 57 13.9 57 13.9 100 100 NNE 3 6 29.91 1013 3 5 N/A
9:08 pm 21:08 Cloudy with Mist and Fog 56 13.3 56 13.3 100 100 SE 3 6 29.94 1014 4 6 N/A
9:53 pm 21:53 Cloudy with Mist and Fog 56 13.3 56 13.3 100 100 N N/A 29.95 1014 5 8 0.01 0.25
10:09 pm 22:09 Cloudy with Light Rain 56 13.3 56 13.3 100 100 N N/A 29.94 1014 2 3 N/A
10:20 pm 22:20 Cloudy with Light Rain 56 13.3 56 13.3 100 100 N N/A 29.94 1014 3 5 N/A
10:24 pm 22:24 Cloudy with Light Rain 55 12.8 55 12.8 100 100 NE 3 6 29.94 1014 2 3 N/A
10:38 pm 22:38 Cloudy with Mist and Fog 55 12.8 55 12.8 100 100 N N/A 29.94 1014 2 3 N/A
10:53 pm 22:53 Cloudy with Mist and Fog 55 12.8 55 12.8 100 100 W 3 6 29.94 1014 3 4 N/A
11:53 pm 23:53 Cloudy with Mist and Fog 54 12.2 54 12.2 100 100 N N/A 29.93 1013 2 2 N/A

Powered by AerisWeather